This is the latest recevied weather packets stored in our database for station/object KD9NSC. If no packets are shown the sender has not sent any weather packets the latest 10 day(s).
| Time | Temp. | Humidity | Pressure | Rain* | Wind** | Luminosity | Snow |
|---|---|---|---|---|---|---|---|
| 1777413244 | 15.56° C | 69% | 1014.7 hPa | 0 mm | - | 17 W/m² | - |
| 1777412940 | 15.56° C | 69% | 1014.6 hPa | 0 mm | - | 17 W/m² | - |
| 1777412639 | 15.56° C | 69% | 1014.7 hPa | 0 mm | - | 18 W/m² | - |
| 1777412336 | 16.11° C | 69% | 1014.9 hPa | 0 mm | - | 18 W/m² | - |
| 1777412032 | 16.11° C | 70% | 1015 hPa | 0 mm | - | 18 W/m² | - |
| 1777411731 | 16.11° C | 68% | 1014.8 hPa | 0 mm | - | 19 W/m² | - |
| 1777411426 | 16.11° C | 69% | 1015.1 hPa | 0 mm | - | 19 W/m² | - |
| 1777411121 | 16.11° C | 68% | 1015.2 hPa | 0 mm | - | 20 W/m² | - |
| 1777410820 | 16.11° C | 66% | 1015.2 hPa | 0 mm | - | 21 W/m² | - |
| 1777410520 | 16.11° C | 68% | 1015.2 hPa | 0 mm | - | 30 W/m² | - |
| 1777410219 | 16.67° C | 67% | 1015.2 hPa | 0 mm | - | 43 W/m² | - |
| 1777409914 | 16.67° C | 67% | 1015.3 hPa | 0 mm | - | 74 W/m² | - |
| 1777409610 | 16.67° C | 67% | 1015.3 hPa | 0 mm | - | 92 W/m² | - |
| 1777409306 | 16.67° C | 68% | 1015.1 hPa | 0 mm | - | 58 W/m² | - |
| 1777409002 | 16.67° C | 70% | 1015.2 hPa | 0 mm | - | 81 W/m² | - |
| 1777408699 | 16.11° C | 67% | 1015.2 hPa | 0 mm | - | 25 W/m² | - |
| 1777408395 | 16.11° C | 71% | 1015.1 hPa | 0 mm | - | 23 W/m² | - |
| 1777408089 | 16.67° C | 70% | 1015.3 hPa | 0 mm | - | 60 W/m² | - |
| 1777407785 | 16.67° C | 69% | 1015.2 hPa | 0 mm | - | 50 W/m² | - |
| 1777407481 | 16.67° C | 69% | 1015.1 hPa | 0 mm | - | 58 W/m² | - |
| 1777407176 | 16.67° C | 69% | 1014.8 hPa | 0 mm | - | 112 W/m² | - |
| 1777406871 | 16.67° C | 69% | 1014.9 hPa | 0 mm | - | 44 W/m² | - |
| 1777406566 | 16.67° C | 69% | 1015.3 hPa | 0 mm | - | 113 W/m² | - |
| 1777406262 | 16.67° C | 70% | 1015.2 hPa | 0 mm | - | 229 W/m² | - |
| 1777405961 | 16.67° C | 68% | 1015.4 hPa | 0 mm | - | 66 W/m² | - |
* Rain latest hour (hover to see other rain measurements)
** Current wind speed in m/s (hover to see current wind gust speed)